Theta_e
348 348 349 349 348 346 346 346 347 348 350 350 350 350 350 349 349 349 350 350 349 350 351 350 350 347 347 346 344 344 344 344 344 344 343 343 343 343 342 343 343 344 345 347 347 346 346 345 344 343 343 342 343 341 346 342 342 338 340 339 343 337
349 348 348 348 348 347 345 344 343 348 351 351 350 351 352 351 351 351 349 350 350 348 345 348 349 350 349 346 346 344 344 343 344 343 343 343 343 342 342 342 342 342 344 346 347 348 347 345 343 343 343 344 342 344 345 343 339 340 335 341 342 341
348 348 347 348 347 345 343 345 344 343 348 347 351 350 347 348 348 348 346 346 346 346 344 345 348 347 349 349 348 346 345 345 344 345 344 344 344 344 342 342 341 342 343 345 347 348 345 345 343 344 344 343 343 346 343 343 343 340 338 339 342 342
348 348 347 346 347 344 344 344 343 343 347 347 348 346 346 346 346 347 346 346 345 344 344 347 343 344 348 348 349 347 346 345 345 344 344 345 345 345 345 342 343 341 341 341 344 346 343 344 345 343 343 342 345 342 342 342 339 342 340 338 340 342
348 347 346 346 345 344 344 342 342 342 343 345 344 345 344 346 346 346 345 345 342 343 344 343 337 341 343 346 348 350 349 347 347 346 345 346 343 342 344 338 337 338 335 335 336 341 339 339 342 344 344 344 343 342 341 341 338 339 341 344 342 342
347 346 346 345 344 344 343 341 342 342 342 343 342 343 342 344 345 345 343 343 344 343 346 345 345 345 343 343 343 344 347 347 345 345 341 344 343 345 339 340 333 331 332 337 339 340 340 339 337 340 340 342 342 342 340 340 341 341 341 343 343 342
344 345 345 343 343 341 340 342 341 341 342 341 341 342 342 341 343 344 342 343 344 343 344 343 345 345 344 344 344 342 341 342 343 342 344 342 342 343 341 340 339 339 337 338 337 338 339 339 338 335 338 339 341 339 340 338 338 339 341 343 345 344
344 342 342 342 342 340 342 343 344 342 343 340 340 340 340 341 343 341 343 346 347 345 345 343 347 347 347 348 347 349 349 346 347 345 348 344 342 340 339 340 340 339 339 336 331 335 337 338 341 340 336 336 340 341 341 341 341 343 344 345 344 344
342 340 340 341 340 338 341 344 343 341 340 341 342 341 342 343 344 343 345 347 347 347 344 347 347 349 350 349 350 349 348 345 346 345 348 347 347 345 342 341 341 339 340 339 336 336 335 337 340 342 339 335 335 337 340 341 340 340 343 344 343 345
341 337 339 340 340 339 341 341 342 342 341 342 342 343 344 342 342 343 345 346 347 346 346 348 349 350 348 349 351 349 347 345 344 350 349 348 351 348 348 346 343 341 337 340 339 338 336 336 334 337 340 339 336 337 340 339 341 341 342 343 345 347
340 342 341 338 339 340 342 341 341 341 342 343 343 345 345 347 346 347 348 348 349 350 349 350 350 349 349 349 350 350 348 347 345 350 349 346 348 347 347 344 345 343 342 341 341 341 340 340 338 335 337 338 339 341 341 342 341 342 342 341 343 346
340 342 341 339 341 341 342 342 344 344 344 346 347 348 347 347 347 349 351 351 351 351 348 351 348 347 349 347 348 348 349 348 346 345 347 346 346 347 346 345 346 348 349 346 342 339 340 339 339 336 336 335 338 338 338 341 343 342 342 343 344 349
341 343 342 340 341 341 343 343 344 347 348 348 347 347 348 348 350 349 351 349 350 350 348 349 347 347 346 348 349 349 349 349 348 348 349 349 349 350 348 347 348 348 347 346 344 344 340 340 339 339 338 336 336 336 339 340 342 343 342 342 343 348
342 342 343 342 344 343 345 346 348 346 348 348 346 346 345 345 347 350 349 348 349 348 348 349 348 346 346 347 348 348 348 348 348 350 350 350 348 347 346 346 346 345 344 344 343 343 341 341 339 338 339 339 338 339 338 338 341 342 341 339 341 345
343 343 343 344 345 346 347 345 348 345 348 348 346 346 346 345 348 348 348 346 348 348 349 349 348 347 347 345 345 346 346 347 349 348 348 349 348 348 347 346 345 344 345 344 343 343 343 343 342 342 340 338 337 337 338 338 341 342 340 340 340 339
345 345 346 347 348 348 346 346 347 347 349 350 348 347 348 348 346 348 348 348 348 349 348 347 348 348 348 348 345 346 345 350 348 348 348 347 346 343 345 343 343 344 342 342 342 341 343 342 342 341 342 343 343 341 339 339 341 340 341 341 338 338
346 347 348 348 348 348 348 346 348 348 348 349 347 347 347 348 348 348 349 347 349 348 348 348 349 348 349 348 346 347 345 347 347 345 344 345 343 343 342 340 342 341 341 338 338 338 340 342 341 340 341 341 341 341 341 341 340 338 338 338 338 339
347 343 341 345 344 347 347 346 346 347 346 347 348 347 347 348 349 349 349 347 349 349 350 351 351 348 349 347 347 346 347 349 348 347 345 344 343 344 343 342 340 341 339 340 338 339 337 337 338 339 339 339 341 341 339 341 343 339 339 337 337 339
346 342 342 343 342 342 347 345 346 345 345 345 345 348 348 348 347 348 348 349 350 351 349 350 348 348 348 346 348 348 349 349 348 347 347 344 342 341 342 341 340 340 342 342 341 341 340 341 341 340 338 338 339 341 341 341 342 340 339 341 339 337
343 343 343 342 344 342 342 339 341 342 343 343 343 346 348 346 348 347 348 349 349 349 348 347 346 349 349 349 348 347 348 349 348 347 344 342 340 338 339 339 340 338 338 339 340 341 341 339 338 338 338 339 341 341 343 342 340 340 340 341 339 340
342 341 341 341 341 343 341 338 339 338 338 341 340 347 347 347 346 347 348 347 348 348 348 348 348 349 349 348 348 346 347 348 348 343 342 343 341 341 341 341 340 341 339 338 340 341 340 338 335 334 336 337 339 341 341 340 340 339 339 340 340 339
340 339 341 344 341 340 341 340 337 336 337 343 341 343 341 343 346 347 346 346 347 346 345 345 345 345 348 346 345 345 345 344 342 342 342 342 341 339 340 342 343 337 339 338 337 339 340 339 334 331 328 330 332 335 338 339 340 340 340 339 339 339
340 338 340 340 340 338 340 337 337 339 340 342 345 345 345 345 345 344 345 344 344 344 343 343 344 343 343 344 343 342 342 342 342 341 340 339 339 339 340 340 340 339 338 339 337 339 338 340 332 334 333 329 325 326 332 338 340 337 335 336 338 339
338 338 341 339 340 339 337 339 341 343 343 342 341 344 344 343 343 342 342 343 342 342 341 340 340 340 341 341 340 341 341 341 341 341 340 338 338 337 338 339 339 340 338 334 335 335 339 339 337 334 325 325 325 325 322 327 331 336 339 338 339 337
334 335 336 339 338 339 340 340 343 343 343 342 342 341 340 338 339 339 339 340 339 339 338 338 338 338 338 338 338 339 338 338 338 340 338 336 337 337 338 338 338 337 336 335 333 334 336 338 338 338 332 328 323 322 321 325 327 328 338 337 339 338
337 337 337 337 338 338 337 339 339 338 336 336 335 335 334 334 335 336 337 339 339 338 337 337 336 336 336 336 337 337 338 337 336 338 337 336 337 337 337 337 337 337 336 337 335 332 332 336 338 338 338 335 330 325 324 327 326 322 332 335 338 337
337 335 335 335 338 336 339 341 339 337 338 336 334 334 336 337 336 336 337 337 336 336 335 334 334 334 334 334 335 336 337 337 335 336 336 336 336 336 336 337 337 337 336 336 336 332 331 332 334 336 336 336 333 331 332 328 323 325 322 328 332 333
336 337 336 337 339 339 338 339 338 337 337 336 335 334 335 335 337 336 335 334 333 332 333 332 332 332 332 332 333 332 333 332 332 333 332 333 333 333 333 335 336 336 336 336 335 332 332 332 330 330 335 335 334 334 334 332 331 327 323 321 324 332
335 337 337 337 338 339 338 339 337 337 334 335 335 335 334 335 335 335 334 333 332 331 332 331 331 330 330 330 330 330 330 329 329 329 329 329 331 330 330 330 330 332 332 333 334 335 333 331 332 330 332 332 333 332 333 334 332 330 326 324 324 325
331 334 335 337 337 337 337 337 336 336 334 333 333 333 334 333 333 334 330 330 331 329 329 330 330 328 327 328 329 328 327 327 328 328 327 328 329 329 328 328 328 329 329 329 330 331 330 331 332 333 333 333 331 330 330 330 329 328 328 329 325 323
334 335 335 335 335 335 335 335 334 334 333 333 333 333 332 330 331 330 328 327 327 327 327 326 327 327 325 326 327 325 325 326 327 326 325 324 325 325 326 326 327 328 328 327 326 326 327 328 328 328 329 330 329 329 327 327 327 328 329 325 325 324
332 333 333 333 333 333 333 333 333 332 330 330 330 330 328 327 327 326 325 324 324 324 325 325 324 324 324 324 325 324 324 324 324 324 323 324 323 323 325 325 325 325 325 325 326 326 325 324 325 325 325 327 327 328 329 328 329 329 328 328 327 325
329 331 331 331 330 331 331 330 329 329 328 328 327 327 327 325 324 324 323 323 323 322 323 322 321 321 321 322 323 322 322 321 322 322 322 322 323 323 323 323 323 324 324 324 323 322 322 322 323 322 323 325 324 325 325 327 328 328 329 330 328 324
327 328 328 328 327 327 327 327 327 326 327 326 325 325 323 323 324 323 323 322 322 321 320 321 321 320 320 321 321 322 321 321 321 321 320 320 320 321 320 321 322 321 321 321 320 320 321 323 322 322 323 322 322 322 322 325 325 325 325 326 325 325
326 326 326 325 325 325 323 324 324 324 324 325 324 322 321 322 322 322 321 321 321 321 320 320 319 320 320 320 320 321 320 319 319 319 319 319 319 319 319 319 319 320 319 319 318 318 318 319 318 319 320 320 320 321 322 323 324 324 324 323 323 323
324 324 324 324 323 323 322 322 322 322 322 322 322 322 321 320 320 321 321 320 319 320 320 319 319 320 320 320 319 319 319 318 318 319 318 318 318 318 318 318 317 317 317 317 316 317 317 317 317 317 318 318 318 319 321 321 322 322 322 322 321 322
323 323 322 322 321 321 321 321 320 320 320 320 320 320 319 319 319 320 320 319 319 319 319 318 318 319 318 318 318 318 318 318 317 317 317 317 317 317 317 317 316 316 315 316 316 316 316 316 317 317 317 317 317 317 318 320 320 320 320 321 322 322
Wind_Speed
13 14 13 12 10 9 10 11 9 9 10 12 13 13 13 13 12 12 10 10 9 6 6 7 7 7 12 8 10 8 6 6 6 7 7 7 6 6 6 5 4 3 4 5 7 7 7 7 7 6 8 10 9 7 7 2 3 2 2 4 5 7
11 13 13 10 9 8 8 9 9 10 9 12 12 13 12 10 10 9 10 8 7 4 3 5 5 7 5 9 8 8 6 5 5 6 6 6 7 6 5 5 5 4 5 6 9 7 7 7 8 7 9 10 7 7 4 2 3 2 1 2 7 10
12 12 12 11 9 9 10 8 10 10 8 10 11 10 8 8 8 8 7 5 4 1 2 3 2 2 4 8 10 9 8 7 6 6 6 6 6 6 6 6 7 7 7 9 7 7 6 6 7 11 9 8 7 6 1 2 4 1 4 3 7 13
12 11 9 9 8 9 9 9 8 9 8 8 8 7 7 6 6 4 4 3 1 3 3 3 4 4 8 7 8 11 12 10 9 8 8 7 7 7 7 8 7 8 7 6 7 7 7 6 6 6 7 7 7 5 3 5 5 3 3 2 7 14
10 9 9 8 8 8 8 8 8 7 8 7 6 6 5 5 4 5 5 3 3 3 4 4 5 5 6 6 6 6 7 7 7 8 12 6 7 7 8 6 6 7 7 7 8 8 8 5 6 7 7 7 6 4 5 4 4 4 3 2 9 14
9 9 8 7 8 9 7 7 7 7 7 7 7 7 6 6 5 4 4 4 3 5 4 3 5 4 4 3 5 6 7 6 5 5 8 5 4 6 7 7 9 9 8 8 7 6 5 5 4 6 6 5 5 5 5 5 4 4 4 3 9 14
9 9 9 8 7 7 7 6 7 7 7 6 5 5 5 5 5 5 5 4 5 4 4 4 3 3 2 3 2 2 2 3 3 4 4 4 3 3 4 5 4 5 6 6 7 6 5 6 8 8 6 5 6 6 5 6 5 5 4 5 9 15
10 9 9 9 8 7 6 6 5 6 7 7 6 6 5 4 5 5 5 5 4 4 3 2 3 2 2 1 1 0 1 2 1 2 1 4 3 3 3 4 5 5 5 6 7 7 6 7 7 7 9 6 6 6 6 6 5 5 4 4 6 12
10 10 8 9 8 7 7 7 7 7 6 6 6 6 5 5 6 6 6 5 4 3 3 2 2 2 2 2 1 1 2 1 2 2 0 2 3 3 4 5 5 5 6 6 5 5 6 7 6 6 6 8 7 6 6 6 6 6 6 4 2 9
11 10 9 9 8 8 8 8 8 7 7 8 6 5 7 6 5 5 4 4 3 2 1 1 1 1 1 1 2 2 2 2 2 1 2 3 2 2 5 6 5 6 7 6 6 6 6 7 8 8 7 7 8 7 6 6 6 6 5 4 3 4
10 10 9 9 8 8 8 9 8 8 8 7 7 7 5 4 4 3 3 2 1 1 1 2 0 1 1 2 1 2 3 2 2 1 1 2 3 3 5 6 5 5 6 6 5 5 5 6 7 9 8 9 8 7 7 6 6 6 6 5 3 6
10 9 9 10 9 9 9 8 9 8 8 7 7 6 5 5 4 4 3 3 2 2 3 1 1 1 1 1 2 2 2 2 2 5 6 6 6 5 5 5 6 5 5 6 7 7 7 6 7 8 9 10 8 8 8 7 7 7 6 5 4 1
11 10 10 11 10 10 8 8 8 7 7 7 7 4 3 3 1 3 3 4 3 3 2 1 1 1 1 1 1 1 2 2 3 2 2 2 4 4 5 5 5 5 6 6 7 7 8 7 8 8 9 10 8 9 7 7 6 6 6 6 6 4
11 11 11 10 9 9 9 8 8 6 6 7 5 4 4 2 3 4 5 5 5 4 3 3 3 3 1 1 1 2 1 2 1 1 2 3 4 4 4 5 5 5 6 6 7 6 7 7 8 8 8 9 9 8 8 8 7 7 8 8 7 6
11 12 11 10 9 9 9 8 5 7 7 5 6 6 6 6 5 5 5 5 5 4 4 3 3 3 2 2 2 1 2 1 0 2 3 2 3 4 4 5 4 5 5 6 7 7 7 7 8 8 9 9 9 9 9 8 8 9 9 9 9 9
12 12 10 10 9 8 8 7 6 5 6 6 5 6 6 6 6 5 4 5 5 5 4 4 3 3 2 2 2 1 1 0 1 2 2 2 4 4 4 4 5 6 6 7 7 7 6 7 7 8 8 7 7 8 9 9 9 10 9 9 10 9
12 11 9 8 6 6 6 7 6 6 6 6 5 6 6 5 5 5 4 4 5 4 4 3 2 2 1 2 1 1 1 1 1 2 2 3 4 4 4 4 5 6 6 7 8 8 8 7 8 8 7 9 8 8 8 8 9 10 10 11 11 10
8 8 5 4 6 4 5 4 6 4 6 6 6 6 6 6 5 5 4 4 4 4 2 2 1 1 1 2 2 1 1 0 1 2 3 4 4 4 4 5 6 6 6 7 7 8 8 8 7 8 8 8 7 6 9 9 5 7 10 11 10 10
6 6 4 4 4 4 4 3 5 4 6 5 6 5 6 5 5 5 4 4 4 3 2 2 1 0 1 1 1 1 1 1 2 2 3 4 4 4 4 5 6 7 6 6 7 7 7 7 7 7 8 9 9 8 8 9 8 8 10 8 7 11
5 4 5 3 5 6 6 5 4 4 2 4 2 5 5 6 5 5 5 4 4 2 1 1 2 2 2 3 2 2 3 3 3 3 4 5 5 5 6 7 7 7 8 7 7 7 7 7 7 8 9 9 9 10 10 8 9 9 8 7 8 9
5 5 4 6 5 5 4 4 3 1 6 8 9 5 5 6 6 6 6 5 5 3 3 3 4 3 3 2 2 3 3 3 3 4 4 5 6 6 6 6 6 6 7 7 6 6 6 7 8 8 7 9 8 9 9 9 10 9 8 10 8 9
3 5 6 4 4 2 3 3 4 3 5 5 2 5 8 5 7 7 6 6 6 5 4 5 4 4 4 4 4 3 3 4 5 4 4 5 6 5 6 6 5 6 4 6 6 6 6 6 6 7 9 8 9 8 9 9 9 6 8 8 9 8
4 4 5 3 4 5 4 3 6 6 5 6 7 7 7 7 7 6 6 6 6 5 5 5 6 6 5 6 6 6 5 6 6 6 6 6 6 6 5 5 6 5 6 5 5 5 6 5 7 7 9 9 8 9 2 1 3 4 7 10 8 6
4 3 1 5 4 4 3 2 4 7 5 7 7 7 7 7 7 6 6 6 6 6 6 5 6 6 5 6 7 6 6 6 6 6 6 6 6 7 6 6 6 6 6 7 5 5 5 6 6 6 6 6 9 8 9 1 4 4 9 9 7 6
3 0 5 3 2 1 2 3 5 7 7 7 7 6 6 6 5 5 5 6 6 6 6 6 5 6 6 5 5 5 6 6 6 7 6 7 7 7 8 7 7 7 7 6 8 7 6 5 5 4 7 7 6 5 6 8 10 9 2 4 5 6
6 2 3 1 2 0 4 6 7 6 6 6 6 5 6 6 5 5 6 6 6 6 6 6 5 6 6 6 6 6 6 7 7 7 6 6 6 7 8 9 8 7 8 7 7 8 8 6 5 5 6 7 5 7 8 9 9 8 4 7 6 6
4 5 2 3 6 6 6 4 4 4 5 5 5 6 5 5 5 5 4 6 7 6 7 7 7 6 6 6 6 6 7 6 7 6 6 6 6 7 8 9 9 9 9 8 8 8 9 8 7 6 6 3 5 9 9 8 9 9 10 5 5 5
4 2 2 5 4 7 5 4 7 8 6 7 8 7 5 4 5 5 5 6 5 6 6 6 7 7 7 7 7 7 8 8 7 7 7 7 8 8 8 9 10 10 9 9 9 8 9 9 8 8 7 7 8 9 8 9 10 6 10 12 9 5
2 2 6 5 4 4 4 5 5 5 6 6 6 5 4 4 4 5 6 6 6 5 6 7 7 7 7 7 6 6 7 7 7 6 6 7 7 8 9 9 10 9 9 9 9 9 9 9 9 10 10 9 9 9 9 8 9 9 9 11 12 10
5 2 1 5 6 7 7 7 6 6 6 5 4 5 5 5 5 6 6 5 6 5 5 5 6 7 7 8 7 8 7 7 6 7 7 8 8 9 8 8 9 9 9 10 9 9 10 10 10 10 10 10 10 9 9 8 7 8 8 9 10 11
7 5 4 6 7 7 6 6 6 5 6 5 6 5 5 5 5 5 5 5 5 5 5 5 5 5 6 7 6 6 7 7 6 7 7 8 8 8 8 8 9 9 8 9 8 10 10 10 10 11 12 11 10 10 10 11 11 10 9 10 11 11
6 6 5 7 8 7 6 6 5 6 7 7 6 5 6 6 5 5 5 5 4 4 4 5 5 5 6 7 6 6 7 7 6 7 7 6 7 7 7 7 7 7 8 9 9 9 9 10 11 10 11 10 11 11 11 11 11 11 11 11 11 12
8 7 6 8 8 6 7 6 6 7 6 7 7 6 6 6 4 5 5 5 4 4 4 4 5 5 6 7 6 6 6 7 6 7 7 8 8 9 9 7 7 8 8 9 9 10 9 10 10 10 9 10 10 10 11 11 12 12 11 11 11 12
8 7 7 7 7 7 7 7 7 7 6 6 7 6 6 5 5 5 5 5 5 5 5 5 5 6 6 6 6 6 6 7 7 7 7 8 8 7 8 7 8 8 9 8 9 10 10 11 10 10 10 10 10 10 10 10 11 11 12 12 12 12
9 7 8 8 7 8 7 7 7 6 7 6 6 6 6 5 5 6 6 6 6 5 5 5 5 5 6 6 6 6 6 6 7 7 7 7 6 7 7 6 6 7 7 7 8 8 8 9 9 11 11 10 10 9 9 10 10 10 10 11 11 12
9 9 8 9 8 7 7 7 8 8 8 7 6 6 6 6 6 6 6 6 6 6 5 5 5 5 6 6 6 6 6 7 6 6 7 7 7 7 7 7 7 7 8 7 8 10 8 9 9 11 10 10 9 10 10 10 11 11 12 11 11 11
10 9 9 9 8 8 8 8 8 8 8 8 8 8 7 8 7 7 6 6 6 6 6 5 4 4 5 5 5 6 5 6 7 7 7 7 7 7 7 6 7 7 8 9 9 9 8 9 9 9 9 11 9 9 9 9 9 10 10 11 11 11
Wind_Direction
153 151 141 134 137 138 135 137 136 126 131 137 137 137 137 141 148 151 162 162 167 165 153 137 167 137 153 132 107 119 123 119 119 132 146 145 150 160 163 164 165 177 185 186 188 186 187 192 196 202 221 237 249 257 261 323 279 160 253 131 139 108
146 141 142 139 136 137 144 163 152 156 151 143 148 148 157 159 159 155 174 165 180 173 145 141 143 147 136 133 134 129 131 128 132 134 141 160 159 169 173 175 183 200 216 197 193 194 185 198 207 211 226 246 251 249 230 268 284 281 232 186 104 126
140 145 145 137 137 137 158 152 148 162 148 159 157 167 167 168 160 168 170 174 179 181 153 146 111 72 109 116 130 146 142 152 153 151 155 161 174 177 188 193 200 204 214 217 209 218 188 180 194 203 229 241 248 255 188 256 255 257 254 70 103 130
143 145 148 144 148 148 158 149 159 156 165 168 166 173 175 166 166 171 143 147 172 144 184 127 116 185 165 162 150 161 162 163 164 165 168 179 182 188 198 213 219 219 222 223 225 229 212 192 186 183 208 228 236 230 220 216 238 227 312 152 121 138
141 143 143 143 143 147 155 161 157 155 167 170 172 166 170 168 150 161 155 180 172 178 208 164 173 183 206 186 169 172 170 182 185 182 181 202 183 182 192 200 210 218 219 232 236 241 250 209 182 195 212 222 240 242 239 233 251 281 224 114 127 147
143 145 143 156 149 146 165 155 150 167 151 181 165 170 171 176 159 163 180 176 159 201 207 170 183 190 170 191 186 176 185 189 196 182 174 222 214 176 191 206 202 201 220 229 235 253 263 288 251 215 231 212 250 243 238 247 232 221 255 174 145 151
144 147 162 153 143 158 161 149 155 162 149 172 158 154 169 167 158 169 194 169 203 189 188 176 171 183 183 198 205 183 189 141 196 213 179 247 217 229 250 239 222 223 241 246 247 239 237 247 266 267 229 227 230 247 247 257 252 239 228 232 147 157
149 158 156 138 156 159 141 147 140 143 158 157 161 166 149 168 146 173 178 199 193 206 191 171 163 172 179 150 176 192 246 199 186 249 140 269 242 236 231 254 259 267 248 249 251 244 240 238 229 250 280 244 216 242 266 272 268 266 262 251 160 163
154 157 153 155 157 144 140 145 155 168 145 165 161 159 151 147 173 167 183 187 197 211 198 170 174 184 178 196 39 253 238 236 253 280 352 258 307 323 279 249 248 247 245 253 259 253 254 261 257 225 242 269 256 237 235 247 259 268 263 278 232 173
158 158 155 161 154 143 155 156 160 156 143 178 148 144 150 168 165 164 170 181 195 202 201 208 193 270 180 239 185 195 230 212 226 14 302 318 359 286 300 289 258 249 258 242 247 258 253 248 251 249 224 239 254 257 246 247 253 255 268 293 2 117
163 155 163 157 153 149 158 159 155 150 163 163 151 154 162 153 153 153 149 159 173 252 347 289 194 225 207 204 223 218 236 222 175 86 297 277 271 251 246 262 273 276 287 292 281 268 249 252 263 259 243 228 241 249 244 244 245 250 255 254 243 124
153 155 167 145 152 158 161 157 151 158 154 148 145 147 153 155 156 153 163 172 185 234 208 185 243 206 191 204 194 206 232 255 244 182 194 218 218 249 268 274 294 308 296 285 283 279 271 266 267 272 273 259 232 227 242 233 233 240 244 253 258 143
154 164 153 151 157 159 152 150 150 142 136 145 155 122 83 87 154 159 174 180 183 190 198 181 132 239 171 189 153 208 199 199 231 269 291 299 291 276 268 266 256 250 261 265 263 261 274 276 267 265 274 276 280 268 251 245 239 234 237 234 229 203
159 159 155 158 157 153 146 146 145 144 145 160 125 129 148 133 200 173 173 172 168 171 185 156 170 163 217 194 191 225 233 230 284 297 277 254 257 260 276 288 293 283 274 270 269 273 267 264 268 276 273 272 270 273 271 259 252 242 239 242 234 214
162 158 158 151 147 143 148 142 153 154 155 159 142 165 174 183 190 166 168 152 158 164 171 173 167 181 208 212 210 199 222 203 324 292 272 271 283 290 281 281 285 286 287 283 280 281 279 276 279 272 274 278 275 273 268 266 255 251 252 247 244 239
156 152 151 143 141 146 147 145 149 135 153 157 172 157 165 163 161 161 157 148 157 158 174 181 188 186 208 241 227 203 201 148 232 253 272 284 275 274 275 275 277 278 284 282 282 278 276 277 275 277 276 276 272 275 280 270 257 258 256 259 257 248
146 141 131 127 123 130 151 147 144 156 154 175 158 163 154 160 153 151 150 147 151 156 174 166 196 183 243 260 242 233 131 175 233 277 289 278 279 290 291 290 289 288 286 289 288 285 282 281 280 277 275 273 279 276 268 272 277 275 269 256 260 262
128 130 144 137 145 152 148 155 141 175 162 170 170 159 159 150 139 136 141 129 141 140 151 140 170 194 219 279 343 339 12 343 292 299 288 285 290 295 301 301 300 297 297 296 293 296 298 291 292 291 287 283 273 274 270 268 280 281 272 272 273 258
116 121 125 141 148 172 178 144 162 172 162 179 174 162 141 145 127 125 122 121 126 131 149 149 165 256 326 333 324 351 329 326 306 294 295 293 298 303 306 304 303 305 303 294 297 298 299 301 296 293 286 283 279 265 272 269 264 268 269 271 270 267
147 140 138 169 157 183 174 170 173 160 221 186 101 139 148 122 125 121 116 125 114 123 115 90 57 30 10 360 333 345 342 322 307 300 297 309 315 317 322 316 311 309 306 301 299 296 295 298 298 292 289 283 274 272 258 266 272 267 274 270 265 277
167 153 179 163 174 168 171 168 165 153 188 198 151 152 118 104 99 88 97 94 94 81 68 55 47 25 12 358 345 338 327 328 314 305 318 316 320 321 320 318 315 310 309 305 304 298 303 302 300 291 285 280 271 261 248 239 250 265 267 273 274 270
161 170 181 168 166 196 179 178 132 150 260 156 132 142 108 102 100 95 92 87 81 70 63 56 39 32 25 2 355 334 326 319 319 329 321 316 316 319 319 328 321 317 308 301 302 315 314 309 294 306 308 306 294 282 261 252 252 279 294 297 275 274
202 163 198 142 191 201 200 198 173 204 198 99 99 91 95 101 101 99 81 72 65 55 44 38 27 19 14 7 360 349 346 342 339 339 330 327 326 323 329 325 329 325 316 311 302 307 306 312 304 311 307 296 304 313 351 316 330 298 267 255 256 251
204 186 152 187 195 216 191 167 276 152 159 126 122 107 109 98 89 86 83 66 61 45 40 35 23 16 16 9 360 354 345 350 344 345 338 330 332 329 331 332 331 327 320 319 316 317 314 305 304 321 313 314 307 307 311 90 290 263 233 255 256 261
349 90 269 211 255 235 122 169 211 123 113 110 109 108 104 97 81 85 88 78 58 42 41 35 27 23 19 18 6 0 354 349 351 352 349 339 338 337 334 330 340 332 332 325 321 320 313 311 299 290 294 306 307 295 322 328 329 309 24 264 225 234
213 182 211 239 154 56 258 196 192 147 128 123 115 103 93 93 105 83 76 75 65 47 45 38 27 31 27 18 16 12 9 357 358 357 359 345 341 335 338 343 342 335 330 330 322 317 311 311 298 282 267 255 282 294 307 310 314 312 274 258 232 209
185 170 217 206 184 240 197 160 104 98 99 105 107 84 84 84 85 82 77 65 64 51 39 46 37 33 32 24 12 13 14 10 3 355 348 345 348 347 344 340 340 337 333 328 328 316 317 318 312 297 294 286 273 265 269 287 304 308 304 307 296 265
249 106 226 183 237 179 169 118 96 90 85 88 87 99 100 91 81 84 76 64 64 64 51 46 46 37 31 33 25 18 13 13 360 5 350 354 351 352 345 339 340 340 334 333 328 322 319 319 318 311 311 300 287 283 286 281 277 268 291 299 298 285
63 93 156 170 149 108 86 92 93 103 101 90 106 114 116 103 93 77 75 70 66 63 65 52 41 35 27 26 23 24 24 13 5 359 353 357 345 347 346 338 336 340 339 333 327 323 321 324 322 316 320 312 310 302 295 289 295 280 284 291 294 300
134 159 260 123 101 77 72 73 81 87 99 117 123 112 104 95 81 79 73 68 71 60 49 55 50 36 20 18 15 16 12 8 3 358 355 352 346 346 344 339 338 334 334 335 332 332 336 330 327 327 323 318 312 311 303 300 288 295 294 278 278 296
133 129 122 81 73 75 71 67 73 77 84 92 92 88 99 84 71 66 71 69 65 63 52 45 35 43 26 19 21 19 11 9 13 9 3 354 356 347 343 345 334 335 338 340 336 330 329 329 328 325 325 324 322 319 321 312 314 313 303 301 302 298
106 90 90 71 63 54 60 65 72 77 64 57 68 77 71 73 70 74 65 70 71 69 68 61 39 34 27 22 20 21 19 16 15 6 5 354 351 343 345 345 336 339 339 344 331 334 336 329 331 325 321 323 321 322 318 319 322 317 314 310 305 301
117 115 84 71 75 70 65 72 82 81 79 62 62 77 82 80 80 79 78 74 71 68 57 58 42 36 32 26 26 24 17 17 13 11 6 3 354 357 1 342 347 348 352 344 353 347 334 330 333 326 323 322 320 320 320 323 320 320 318 315 308 304
112 86 81 82 86 84 79 75 73 78 85 93 90 84 83 81 75 75 75 72 66 63 66 53 50 42 29 27 31 29 23 23 17 13 11 6 359 2 358 351 357 3 353 357 353 346 335 342 338 339 335 327 326 325 318 317 317 317 318 320 319 320
119 113 106 100 92 84 82 79 78 79 79 93 91 86 80 75 73 79 76 75 70 67 66 60 48 45 36 38 34 33 29 22 18 15 9 8 2 5 359 355 2 1 358 358 349 344 343 345 345 345 336 336 332 320 321 323 321 322 324 322 320 323
123 114 102 94 94 92 88 86 83 86 86 87 93 95 91 83 83 76 77 75 71 67 65 65 59 47 48 40 32 26 25 28 18 13 11 8 7 8 360 6 2 3 3 357 347 347 349 344 346 344 340 339 330 333 333 338 335 334 332 328 320 313
118 114 107 99 97 93 89 86 84 84 84 83 83 86 91 93 88 83 81 78 77 72 66 61 58 52 46 42 39 19 26 19 20 16 12 13 8 11 3 13 5 4 5 357 350 352 352 351 348 346 344 341 339 335 334 336 332 332 327 325 325 322